| time (UTC) | temp F | wind direction | speed MPH | gust MPH | rain 1hr in | rain 24hr in | rain mn in | humidity % | barometer mb |
| 20260506161504 | 58 | 85 | 2.0 | 5.0 | 0.00 | 0.04 | 0.00 | 67 | 1006.5 |
| 20260506160005 | 59 | 58 | 1.0 | 6.0 | 0.00 | 0.04 | 0.00 | 66 | 1006.3 |
| 20260506154505 | 60 | 87 | 1.0 | 6.0 | 0.00 | 0.04 | 0.00 | 64 | 1006.2 |
| 20260506151504 | 66 | 4 | 1.0 | 5.0 | 0.00 | 0.04 | 0.00 | 50 | 1005.9 |
| 20260506150005 | 73 | 330 | 2.0 | 4.0 | 0.00 | 0.04 | 0.00 | 43 | 1005.9 |
| 20260506144504 | 70 | 3 | 1.0 | 5.0 | 0.00 | 0.04 | 0.00 | 47 | 1005.9 |
| 20260506143004 | 69 | 321 | 1.0 | 3.0 | 0.00 | 0.04 | 0.00 | 50 | 1005.7 |
| 20260506141504 | 64 | 100 | 1.0 | 6.0 | 0.00 | 0.04 | 0.00 | 53 | 1006.0 |
| 20260506134504 | 69 | 22 | 0.0 | 3.0 | 0.00 | 0.04 | 0.00 | 41 | 1006.2 |
| 20260506133004 | 69 | 321 | 2.0 | 5.0 | 0.00 | 0.04 | 0.00 | 40 | 1006.4 |
| 20260506131504 | 70 | 340 | 2.0 | 4.0 | 0.00 | 0.04 | 0.00 | 46 | 1006.7 |
| 20260506130005 | 64 | 297 | 0.0 | 4.0 | 0.00 | 0.04 | 0.00 | 53 | 1006.8 |
| 20260506124504 | 64 | 6 | 2.0 | 6.0 | 0.00 | 0.04 | 0.00 | 44 | 1006.9 |
| 20260506123004 | 66 | 348 | 1.0 | 7.0 | 0.00 | 0.04 | 0.00 | 41 | 1006.8 |
| 20260506121504 | 66 | 281 | 2.0 | 8.0 | 0.00 | 0.04 | 0.00 | 41 | 1006.9 |
| 20260506120005 | 67 | 312 | 1.0 | 4.0 | 0.00 | 0.04 | 0.00 | 40 | 1006.7 |
| 20260506114504 | 68 | 357 | 2.0 | 7.0 | 0.00 | 0.04 | 0.00 | 40 | 1006.8 |
| 20260506113004 | 68 | 264 | 1.0 | 4.0 | 0.00 | 0.04 | 0.00 | 43 | 1007.1 |
| 20260506111504 | 66 | 27 | 0.0 | 4.0 | 0.00 | 0.04 | 0.00 | 44 | 1007.1 |
| 20260506110004 | 67 | 295 | 2.0 | 2.0 | 0.00 | 0.04 | 0.00 | 44 | 1007.3 |
| 20260506104504 | 66 | 9 | 5.0 | 7.0 | 0.00 | 0.04 | 0.00 | 50 | 1007.4 |
| 20260506103004 | 65 | 354 | 1.0 | 3.0 | 0.00 | 0.04 | 0.00 | 50 | 1007.6 |
| 20260506101504 | 65 | 42 | 2.0 | 3.0 | 0.00 | 0.04 | 0.00 | 46 | 1007.7 |
| 20260506100005 | 64 | 352 | 0.0 | 4.0 | 0.00 | 0.04 | 0.00 | 53 | 1007.8 |
| 20260506094504 | 62 | 309 | 2.0 | 3.0 | 0.00 | 0.04 | 0.00 | 61 | 1007.8 |
| 20260506093004 | 61 | 307 | 0.0 | 3.0 | 0.00 | 0.04 | 0.00 | 69 | 1007.9 |
| 20260506091504 | 60 | 302 | 0.0 | 3.0 | 0.00 | 0.04 | 0.00 | 70 | 1007.8 |
| 20260506090004 | 59 | 0 | 0.0 | 0.0 | 0.00 | 0.04 | 0.00 | 80 | 1007.8 |
| 20260506084504 | 54 | 0 | 0.0 | 0.0 | 0.00 | 0.04 | 0.00 | 96 | 1007.8 |
| 20260506083006 | 52 | 0 | 0.0 | 0.0 | 0.00 | 0.04 | 0.00 | 99 | 1007.7 |
| 20260506081506 | 52 | 0 | 0.0 | 0.0 | 0.00 | 0.04 | 0.00 | 99 | 1007.5 |
| 20260506073006 | 49 | 0 | 0.0 | 0.0 | 0.00 | 0.04 | 0.00 | 99 | 1007.4 |
| 20260506061506 | 43 | 0 | 0.0 | 0.0 | 0.00 | 0.04 | 0.00 | 99 | 1007.4 |
| 20260506044505 | 40 | 0 | 0.0 | 0.0 | 0.00 | 0.04 | 0.00 | 99 | 1006.5 |
| 20260506043005 | 40 | 0 | 0.0 | 0.0 | 0.00 | 0.04 | 0.00 | 99 | 1006.3 |
| 20260506041505 | 40 | 0 | 0.0 | 0.0 | 0.00 | 0.04 | 0.00 | 99 | 1006.4 |
| 20260506033006 | 41 | 0 | 0.0 | 0.0 | 0.00 | 0.04 | 0.00 | 99 | 1006.1 |
| 20260506031506 | 41 | 0 | 0.0 | 0.0 | 0.00 | 0.04 | 0.00 | 99 | 1006.2 |
| 20260506030006 | 42 | 0 | 0.0 | 0.0 | 0.00 | 0.04 | 0.00 | 99 | 1006.1 |
| 20260506024505 | 42 | 0 | 0.0 | 0.0 | 0.00 | 0.04 | 0.00 | 99 | 1006.4 |
| 20260506023006 | 41 | 0 | 0.0 | 0.0 | 0.00 | 0.04 | 0.00 | 99 | 1006.2 |
| 20260506021506 | 41 | 0 | 0.0 | 0.0 | 0.00 | 0.04 | 0.00 | 99 | 1006.1 |
| 20260506011506 | 43 | 0 | 0.0 | 0.0 | 0.00 | 0.04 | 0.00 | 99 | 1006.3 |
| 20260506004505 | 44 | 0 | 0.0 | 0.0 | 0.00 | 0.04 | 0.00 | 99 | 1006.4 |
| 20260506003005 | 44 | 0 | 0.0 | 0.0 | 0.00 | 0.04 | 0.00 | 99 | 1006.4 |
| 20260506001505 | 44 | 0 | 0.0 | 0.0 | 0.00 | 0.04 | 0.00 | 99 | 1006.6 |
| 20260505234505 | 44 | 0 | 0.0 | 0.0 | 0.00 | 0.04 | 0.00 | 99 | 1006.7 |
| 20260505231505 | 45 | 0 | 0.0 | 0.0 | 0.00 | 0.04 | 0.00 | 99 | 1006.9 |
| 20260505230005 | 45 | 0 | 0.0 | 0.0 | 0.00 | 0.04 | 0.00 | 99 | 1006.9 |
| 20260505224505 | 46 | 0 | 0.0 | 0.0 | 0.00 | 0.04 | 0.00 | 99 | 1006.9 |
| 20260505223005 | 47 | 0 | 0.0 | 0.0 | 0.00 | 0.04 | 0.00 | 98 | 1007.1 |
| 20260505221505 | 47 | 0 | 0.0 | 0.0 | 0.00 | 0.04 | 0.00 | 98 | 1007.2 |
| 20260505214505 | 47 | 0 | 0.0 | 0.0 | 0.00 | 0.04 | 0.04 | 97 | 1007.6 |
| 20260505213005 | 47 | 0 | 0.0 | 0.0 | 0.00 | 0.04 | 0.04 | 96 | 1007.6 |
| 20260505211505 | 47 | 0 | 0.0 | 0.0 | 0.00 | 0.04 | 0.04 | 96 | 1007.5 |
| 20260505210005 | 47 | 0 | 0.0 | 0.0 | 0.00 | 0.04 | 0.04 | 96 | 1007.4 |
| 20260505204505 | 48 | 0 | 0.0 | 0.0 | 0.00 | 0.04 | 0.04 | 95 | 1007.1 |
| 20260505200005 | 49 | 0 | 0.0 | 0.0 | 0.00 | 0.04 | 0.04 | 94 | 1006.6 |
| 20260505194505 | 49 | 0 | 0.0 | 0.0 | 0.01 | 0.04 | 0.04 | 93 | 1006.6 |
| 20260505193004 | 49 | 0 | 0.0 | 0.0 | 0.04 | 0.04 | 0.04 | 91 | 1006.5 |
| 20260505191505 | 50 | 0 | 0.0 | 0.0 | 0.04 | 0.04 | 0.04 | 89 | 1006.4 |
| 20260505190005 | 51 | 0 | 0.0 | 0.0 | 0.04 | 0.04 | 0.04 | 86 | 1006.3 |
| 20260505184504 | 52 | 155 | 0.0 | 3.0 | 0.03 | 0.03 | 0.03 | 81 | 1005.3 |
| 20260505181505 | 55 | 236 | 2.0 | 6.0 | 0.00 | 0.00 | 0.00 | 63 | 1006.3 |
| 20260505180005 | 56 | 221 | 2.0 | 3.0 | 0.00 | 0.00 | 0.00 | 80 | 1005.9 |
| 20260505174505 | 56 | 1 | 0.0 | 2.0 | 0.00 | 0.00 | 0.00 | 81 | 1005.5 |
| 20260505173004 | 56 | 1 | 0.0 | 2.0 | 0.00 | 0.00 | 0.00 | 81 | 1005.3 |
| 20260505171505 | 57 | 352 | 2.0 | 4.0 | 0.00 | 0.00 | 0.00 | 79 | 1005.1 |
| 20260505170004 | 58 | 336 | 1.0 | 3.0 | 0.00 | 0.00 | 0.00 | 76 | 1005.4 |
| 20260505164505 | 58 | 24 | 2.0 | 4.0 | 0.00 | 0.00 | 0.00 | 75 | 1005.3 |